Location: Seattle
(47.6064°N, 122.3308°W)
Time: 00:25:23
(UTC-08:00)

A-11 Canister half - Pass Details

Date: 26 November 2020
Orbit: 1524 x 1684 km, 47.3° (Epoch: 27 January)

Event Time Altitude Azimuth Distance (km) Brightness Sun altitude
Rises 11:56:16 0° 288° (WNW) 4,887 11.5 21.3°
Reaches altitude 10° 11:59:29 10° 285° (WNW) 3,879 11.0 21.3°
Maximum altitude 12:09:07 61° 209° (SSW) 1,778 10.2 21.2°
Drops below altitude 10° 12:18:25 10° 132° (SE) 3,744 11.7 21.1°
Sets 12:21:28 0° 129° (SE) 4,708 12.0 21.0°
